Honiara International Airport
AGGH : now visible

Airfield :











YOU CAN JOIN US ON...

 
LOGIN :

Register | Disclaimer

   EN    FR    IT 

 









Legend :    VFR   Marginal VFR   IFR   Intensive IFR   Very Intensive IFR
Visi :
Ceiling :
>= 8 km
>= 3000ft
5 to 8 km
1000 to 3000 ft
1500m to 5 km
500 to 1000 ft
800 to 1500m
200 to 500 ft
< 800m
< 200 ft
Symbols :   Thunderstorms  Fog  Heavy snow  Heavy precipitations  Wind > 20 kt






- Airport Elevation : 28 ft
- IATA code : HIR


AGGH - Honiara International

CURRENT METAR :
  • 280700Z 32007KT 9999 FEW019 FEW020CB BKN300 31/26 Q1006

EXPIRED METARs :
  • 280600Z 34008KT 9999 FEW020 FEW020CB BKN300 32/24 Q1005
  • 280500Z 34004KT 9999 FEW020 SCT300 32/26 Q1005
  • 280400Z 32010KT 9999 FEW020 SCT300 32/27 Q1006

TAF TAF AGGH
Valid from the 28 at 06:00 until the 29 at 06:00 UTC


280505Z 2806/2906 32008KT 9999 FEW018 T 31 27 25 23 Q 1005 1007 1008 1006



MET'MAP, your aeronautical weather chart ! - Copyright ORBIFLY December 2007 - Disclaimer

ORBIFLY MET'MAP TEAM :

Programming & Development : Alexandra Zaïnal
Concept & original design : Baudouin d'Aumeries
Assistance for programming : Marc-Olivier Méhu
Technical & hardware support : Manuel Goepfert

Contact : metmap@orbifly.com




SOURCES & CREDITS :

   NOAA       Earth
Advisory